Voltar ao catálogo

COSMOS 1275 DEB

AtivoPO
NORAD 13073·DEBRIS·🇷🇺 Russia

Lançado Jun 4, 1981 de Plesetsk Cosmodrome

Loading…

Próximas Passagens (próximas 24 horas)

TLE

AtualizadoSource: Space-Track

Época: Sep 14, 2026, 22:08 UTC

1 13073U 81053EZ  26257.92282108  .00000096  00000-0  86430-4 0  9995
2 13073  82.9358 232.9925 0086311 214.2831 174.5342 13.72456357257646

Acompanhe COSMOS 1275 DEB em tempo real com AllMySat

Download on the App Store